Overview Statistics Trail Chart Weather Telemetry Raw packets
 

This is the latest recevied weather packets stored in our database for station/object N7WGJ. If no packets are shown the sender has not sent any weather packets the latest 10 day(s).

<< 7 8 9 10 11 12 13 >>
Time Temp. Humidity Pressure Rain* Wind** Luminosity Snow
1788560484 20° C 58% 1014.1 hPa 0 mm - - -
1788559901 20° C 60% 1014 hPa 0 mm - - -
1788559299 20° C 62% 1014 hPa 0 mm - - -
1788558692 20° C 64% 1013.8 hPa 0 mm - - -
1788558095 20° C 62% 1013.7 hPa 0 mm - - -
1788557494 20° C 65% 1013.8 hPa 0 mm - - -
1788556894 20° C 65% 1013.8 hPa 0 mm - - -
1788556297 19.44° C 65% 1013.8 hPa 0 mm - - -
1788555697 19.44° C 65% 1013.9 hPa 0 mm - - -
1788555089 18.89° C 67% 1013.8 hPa 0 mm - - -
1788554494 18.89° C 66% 1013.9 hPa 0 mm - - -
1788553898 18.89° C 66% 1014 hPa 0 mm - - -
1788553283 18.89° C 64% 1013.9 hPa 0 mm - - -
1788552684 18.89° C 65% 1013.9 hPa 0 mm - - -
1788552100 18.89° C 69% 1014 hPa 0 mm - - -
1788551495 18.33° C 70% 1014 hPa 0 mm - - -
1788550898 18.33° C 71% 1013.9 hPa 0 mm - - -
1788550301 18.33° C 73% 1013.8 hPa 0 mm - - -
1788549702 18.33° C 73% 1013.9 hPa 0 mm - - -
1788549087 17.78° C 73% 1013.9 hPa 0 mm - - -
1788548509 17.78° C 74% 1014 hPa 0 mm - - -
1788547908 17.78° C 75% 1014 hPa 0 mm - - -
1788547298 17.22° C 75% 1014 hPa 0 mm - - -
1788546702 16.67° C 79% 1014.1 hPa 0 mm - - -
1788546101 16.67° C 79% 1014.2 hPa 0 mm - - -

* Rain latest hour (hover to see other rain measurements)
** Current wind speed in m/s (hover to see current wind gust speed)